Regional Weather Roundup
Issued by NWS Jackson, KY

Home | Current Version | Previous Version | Text Only | Print | Product List | Glossary Off
Versions: 1 2 3 4 5 6 7 8 9 10 11 12 13 14 15 16 17 18 19 20 21 22 23 24 25 26 27 28 29 30 31 32 33 34 35 36 37 38 39 40 41 42 43 44 45 46 47 48

000
ASUS43 KJKL 262010
RWRJKL

EAST KENTUCKY HOURLY WEATHER ROUNDUP
NATIONAL WEATHER SERVICE JACKSON KY
400 PM EDT SUN APR 26 2015

NOTE: "FAIR" INDICATES FEW OR NO CLOUDS BELOW 12,000 FEET WITH
NO SIGNIFICANT WEATHER AND/OR OBSTRUCTIONS TO VISIBILITY.

* THESE REPORTS ARE NOT UNDER NWS QUALITY CONTROL AND MAY NOT
  REPORT WEATHER SUCH AS PRECIPITATION AND FOG.

KYZ079-080-083-085-087-088-110-112-115-119-120-262100
...EASTERN KENTUCKY...

CITY           SKY/WX    TMP DP  RH WIND       PRES   REMARKS
JACKSON        MOSUNNY   61  35  37 MISG      29.77F
LONDON         CLOUDY    59  40  49 NE10G18   29.78F
SOMERSET*      MOSUNNY   59  39  47 N8        29.81S
MONTICELLO*    PTSUNNY   64  45  50 NW8       29.82F
MIDDLESBORO*   CLOUDY    53  46  76 N9        29.79S
HARLAN APT*    CLOUDY    52  41  66 E7        29.77F
BLACK MTN*       N/A     39  39 100 NE3         N/A
PIKEVILLE APT* CLOUDY    55  39  54 N3        29.77F
BIG SANDY*     PTCLDY    60  39  45 NE3       29.77F
MOREHEAD APT*  CLEAR     61  37  41 NW12G18   29.82S
$$

KYZ035-036-041-042-044-050-067-078-099-262100
...CENTRAL KENTUCKY...

CITY           SKY/WX    TMP DP  RH WIND       PRES   REMARKS
MT STERLING*   SUNNY     61  37  41 NE12      29.82F
FLEMING/MASON* SUNNY     57  34  41 N12       29.82F
DANVILLE*      MOSUNNY   57  41  54 N6        29.82F
RICHMOND*      MOSUNNY   59  39  47 N9G16     29.80F
LEXINGTON      SUNNY     61  40  45 N14       29.81F
FRANKFORT      SUNNY     62  33  33 N10       29.81F
$$

KYZ091>093-OHZ055-061-077-WVZ005-015-034-035-042-262100
...SOUTHERN OHIO/WEST VIRGINIA...

CITY           SKY/WX    TMP DP  RH WIND       PRES   REMARKS
COVINGTON      MOSUNNY   59  34  39 N9G21     29.85S
COLUMBUS       MOSUNNY   58  33  39 N17       29.81F
DAYTON         PTSUNNY   57  36  45 N15G22    29.86F
WILMINGTON     SUNNY     57  33  40 N14G22    29.84S
HUNTINGTON     SUNNY     62  34  35 N7        29.76F
CHARLESTON     PTSUNNY   60  38  43 VRB6      29.75F
PINEVILLE*     CLOUDY    48  45  87 MISG      29.83S
BECKLEY        CLOUDY    43  41  93 N7        29.76S FOG
BLUEFIELD      FOG       46  42  86 NW9       29.75S VSB 3/4
$$

VAZ002-007-008-TNZ017-027-036-066-071-262100
...SOUTHWEST VIRGINIA/EAST TENNESSEE...

CITY           SKY/WX    TMP DP  RH WIND       PRES   REMARKS
WISE*          CLOUDY    48  43  81 N9        29.78R
JONESVILLE*    PTCLDY    57  46  67 N8        29.78S
ABINGDON*      CLOUDY    56  48  74 NE6       29.74R
BRISTOL        CLOUDY    60  48  64 N6        29.73R
KNOXVILLE      CLOUDY    60  50  69 N14       29.73R
OAK RIDGE      CLOUDY    60  48  64 N7        29.77R
CROSSVILLE     CLOUDY    51  46  83 NW9       29.80R
NASHVILLE      CLOUDY    55  48  77 N8        29.84S
$$

...KEY TO REMARKS...
VSB - VISIBILITY IN MILES
WCI - WIND CHILL INDEX
HX  - HEAT INDEX

$$


USA.gov is the U.S. government's official web portal to all federal, state and local government web resources and services.